Location: Liscomb Game Sanctuary
(45.1633°N, 62.5575°W)
Time: 14:21:10
(UTC-04:00)

Daily predictions for brighter satellites

Satellite Brightness Start Highest point End
(mag) Time Altitude Azimuth Time Altitude Azimuth Time Altitude Azimuth
Nadezhda 1 Rocket 4.2 16:50:51 10° SSW 16:56:55 77° W 17:03:04 10° N
CZ-3A R/B 3.0 16:53:36 10° SW 16:57:31 78° SE 17:16:42 10° NE
Abrixas 3.0 17:00:34 10° W 17:03:25 43° N 17:06:17 10° ENE
GEOS 3 Rocket 4.4 16:59:34 10° E 17:03:57 30° NE 17:08:22 10° NNW
Cosmos 2341 Rocket 4.0 16:59:39 10° N 17:05:54 77° E 17:12:07 10° SSE
Cosmos 1844 Rocket 3.2 17:01:21 10° S 17:06:31 41° ESE 17:11:45 10° NE
BREEZE M DEB (TANK) 2.7 17:04:50 10° WNW 17:07:18 43° N 17:12:47 10° ENE
OTV 4 3.3 17:05:27 10° SW 17:07:20 15° S 17:09:13 10° SSE
Cosmos 1812 4.2 17:06:57 10° SE 17:09:40 19° E 17:12:24 10° NE
PAYLOAD A 3.9 17:05:15 10° SSE 17:10:01 74° ENE 17:15:01 10° N
MSX 4.2 17:08:57 10° SE 17:14:16 41° ENE 17:19:37 10° N
SPOT 3 Rocket 3.6 17:11:20 10° SSE 17:16:26 61° ENE 17:21:32 10° N
Meteor 1-27 Rocket 4.3 17:12:58 10° SSW 17:18:46 64° WNW 17:24:29 10° N
Cosmos 1844 4.2 17:14:41 10° S 17:19:48 39° ESE 17:24:55 10° NE
USA 234 3.3 17:14:05 10° NE 17:20:40 86° SE 17:27:13 10° SW
CORIOLIS 4.2 17:19:00 10° SSE 17:24:18 61° ENE 17:29:39 10° N
BREEZE-M DEB (TANK) 1.3 17:24:32 10° WSW 17:26:50 78° SSE 17:28:24 17° ENE
CZ-4 R/B 1.5 17:22:46 10° SSE 17:26:58 89° ENE 17:31:09 10° NNW
SJ-12 3.8 17:24:01 10° SSE 17:28:06 78° ENE 17:32:14 10° N
Cosmos 372 Rocket 4.0 17:23:56 10° SSW 17:29:11 90° NW 17:34:29 10° NNE
USA 32 4.1 17:25:57 10° SSE 17:31:03 58° E 17:36:11 10° NNE
COSMOS 2487 4.1 17:29:06 10° NNE 17:31:27 16° ENE 17:31:41 16° ENE
Okean 3 4.2 17:30:17 10° SSW 17:34:29 56° W 17:38:43 10° N
IDEFIX/ARIANE 42P 2.5 17:29:29 10° SSE 17:34:41 81° ENE 17:39:54 10° NNW
Cosmos 1975 3.5 17:33:15 10° N 17:36:57 32° ENE 17:40:36 10° SE
Cosmos 2278 Rocket 2.9 17:32:02 10° SSE 17:37:01 33° ESE 17:41:07 14° NE
MOS 1 4.3 17:31:27 10° SSE 17:37:07 88° WSW 17:42:50 10° NNW
COSMOS 2406 3.9 17:33:46 10° NNW 17:39:24 59° WSW 17:45:01 10° S
ATLAS 2AS CENTAUR R/B 3.0 17:33:22 10° NW 17:41:33 83° NE 17:49:13 10° SE
Cosmos 1544 Rocket 3.5 17:37:19 10° N 17:41:48 73° E 17:46:15 10° SSE
COSMO-SKYMED 1 3.4 17:38:37 12° NE 17:41:59 30° E 17:45:48 10° SSE
Cosmos 494 Rocket 3.9 17:40:26 10° NNW 17:45:40 65° ENE 17:50:53 10° SSE
BREEZE-M DEB (TANK) 4.4 17:36:33 10° W 17:45:49 55° NNW 17:48:08 21° ENE
Cosmos 1975 Rocket 3.6 17:42:56 10° SSW 17:47:11 60° W 17:51:29 10° N
Thor Agena Rocket 3.6 17:46:51 10° NNE 17:52:03 84° WNW 17:57:18 10° SSW
ISS -3.3 17:54:47 10° WSW 17:58:04 79° NNW 17:59:20 35° NE
Cosmos 2082 Rocket 2.8 17:54:48 10° N 17:59:56 34° NE 18:03:10 20° ESE
Genesis I 3.7 17:56:55 10° NNW 18:00:39 39° NE 18:01:49 31° E
Cosmos 1484 Rocket 2.5 17:59:49 10° SSE 18:03:33 68° ENE 18:07:16 10° N
Cosmos 1536 Rocket 3.5 17:59:17 10° S 18:03:42 65° E 18:08:10 10° NNE
Cosmos 1833 Rocket 3.4 17:58:52 10° N 18:03:54 32° NE 18:05:51 25° E
Cosmos 2251 Rocket 3.7 17:59:58 10° NNW 18:05:21 76° WSW 18:10:39 10° SSE
CZ-3B DEB 2.3 18:05:05 10° SW 18:09:00 77° SE 18:15:07 22° NE
YAOGAN 1 3.8 18:06:54 10° S 18:11:02 44° W 18:15:12 10° NNW
NOAA 12 4.3 18:06:08 10° SE 18:11:07 45° ENE 18:16:07 10° N
METEOR-M 4.4 18:10:21 10° SE 18:15:19 42° ENE 18:20:20 10° N
FALCON 9 R/B 4.3 17:52:19 10° WSW 18:16:18 44° S 18:21:50 19° ESE
Cosmos 375 4.3 18:13:27 10° NW 18:18:06 84° NE 18:20:23 24° SE
CZ-2C R/B 4.0 18:15:17 10° SSW 18:19:54 38° W 18:24:40 10° NNW
SL-27 R/B 4.5 18:16:38 10° NW 18:19:56 32° WSW 18:23:12 10° SSW
Cosmos 1500 3.0 18:16:44 10° N 18:20:34 79° E 18:24:23 10° SSE
Cosmos 1238 Rocket 3.2 18:18:03 10° SSW 18:20:52 44° W 18:22:50 18° NNW
OPS 8737 4.1 18:18:03 10° SW 18:21:19 85° NW 18:21:37 71° NNE
DMSP B5D1-3 4.5 18:19:20 19° NNE 18:22:58 60° E 18:28:02 10° S
Meteor 1-28 Rocket 3.7 18:25:16 41° SE 18:25:16 41° SE 18:28:13 10° S
SL-24 DEB 4.4 18:20:53 10° N 18:25:39 75° W 18:30:21 10° SSW
SKYMED 2 3.5 18:27:15 20° NNE 18:30:13 86° WNW 18:34:33 10° SSW
Cosmos 1455 Rocket 4.3 18:27:08 10° NNW 18:31:18 42° W 18:35:28 10° SSW
Okean 1 3.6 18:28:31 10° SSW 18:32:33 67° W 18:35:16 20° N
Okean 1-7 Rocket 4.0 18:28:21 10° SSE 18:31:59 44° SE 18:31:59 44° SE
Cosmos 1934 Rocket 4.2 18:30:39 10° N 18:36:33 45° ENE 18:42:30 10° SSE
Abrixas 4.2 18:36:22 10° WNW 18:38:04 29° NW 18:38:04 29° NW
Timation 2 Rocket 4.1 18:33:12 10° NNW 18:40:02 76° ENE 18:46:56 10° SSE
GEOS 3 Rocket 3.9 18:36:39 10° SSE 18:41:44 65° SW 18:46:50 10° NW
Cosmos 1812 4.4 18:41:49 10° SW 18:45:18 32° WNW 18:48:33 12° NNW
Cosmos 1844 Rocket 4.1 18:45:25 10° WSW 18:50:29 34° NW 18:54:44 14° N
Cosmos 2239 Rocket 4.3 18:44:44 10° N 18:50:59 73° E 18:57:08 10° SSE
Cosmos 1346 Rocket 3.1 18:47:15 10° SSW 18:51:09 64° WNW 18:51:16 63° WNW
Cosmos 1821 Rocket 3.8 18:53:48 10° N 18:59:56 81° E 19:06:02 10° S
SL-8 R/B 3.8 18:56:38 10° WSW 19:00:58 70° SSW 19:00:58 70° SSW
USA 234 4.0 19:00:59 31° NNE 19:03:20 42° NNW 19:09:23 10° W
Cosmos 2297 3.5 18:59:38 10° SSW 19:05:16 81° ESE 19:05:19 81° ESE
COSMOS 2487 4.4 19:03:48 10° NW 19:05:47 26° WNW 19:05:47 26° WNW
NOSS 3-4 (A) 3.7 19:10:17 10° NW 19:17:05 65° NE 19:17:05 65° NE
NOSS 3-4 (C) 3.7 19:10:23 10° NW 19:17:09 65° NE 19:17:09 65° NE
COSMO-SKYMED 1 4.5 19:15:50 18° NNW 19:18:04 28° WNW 19:21:46 10° SW
Cosmos 2278 Rocket 3.3 19:15:40 10° SW 19:20:59 41° NW 19:23:00 30° NNW
Meteor 1-19 Rocket 4.5 19:17:03 10° SSW 19:22:48 69° WNW 19:24:08 52° NNW
NOSS 3-3 (A) 4.5 19:19:19 10° SW 19:25:30 57° NW 19:26:54 48° N
NOSS 3-3 (C) 4.5 19:19:25 10° SW 19:25:35 57° NW 19:26:59 48° N
ISS 0.3 19:32:01 10° WNW 19:32:01 10° WNW 19:32:01 10° WNW
Cosmos 2082 Rocket 3.3 19:38:50 10° NW 19:44:06 41° WSW 19:45:10 37° SW
Cosmos 1833 Rocket 3.6 19:42:37 10° NW 19:47:39 44° W 19:47:39 44° W
CZ-3B DEB 4.1 20:38:46 10° WNW 20:43:53 47° NNW 20:43:53 47° NNW
